BREEZE-KM R/B, 43754

Orbit data source: Space-Track

BREEZE-KM R/B, 43754 is space debris in LEO originally from a launch on Fri, 30 Nov 2018 UTC launched from the Plesetsk Missile And Space Complex (PKMTR). Debris objects in space refer to the collection of defunct objects orbiting the Earth. Examples of debris include non-operational satellites, rocket bodies, and fragments generated from explosions, collisions, or faulty payload assembly.

Loading next visibility...
BREEZE-KM R/B details
Identifier
43754, 2018-097D
Orbit
LEO
Last TLE update22 hours ago
Origin
Flag of CISVVKO VKS (CIS)
ManufacturerKhrunichev
MissionSpacecraft
Bus & MotorBRIZ, S5.92
Mass2,370 kg wet, 2,370 kg dry
Launch date (UTC)
2018-11-30 (6 years ago)
Launch vehicleUnknown
Launch site
Plesetsk Missile And Space Complex (PKMTR)
Object type
Payload
Rocket body
Debris
Shape & HBRHex Cyl + 1 Rod, 4.1 m
Radar Cross Section10.190 m², Large (>1 m²)

Expand to show TLE details & history

TLE from 22 hours ago
0 BREEZE-KM R/B
1 43754U 18097D   24360.55313835  .00000009  00000-0 -15336-4 0  9998
2 43754  82.5140  97.4247 0223116 125.4184 236.7978 12.80104856283503
Epoch: 2024-12-25T13:16Z
Definitive object data (Epoch: 2024-12-25T13:16:31.153Z)
Latitude-0.00004°
Longitude163.74965°
Altitude1,440.776 km
Speed7.096 km/s
True Right ascension06h 29m 41s
True Declination0° 00' 00"
Sunlit
Object was in full shadow at TLE epoch
Visualization TLE readout
Latitude-35.86828°
Longitude157.70563°
Altitude1,515.078 km
Speed7.032 km/s
Apparent Right ascension03h 12m 04s
Apparent Declination-51° 50' 29"
Sunlit
Object is in daylight
Visualization observer readout
Local Sidereal Time10:56:48
Azimuth232.324° WSW
Elevation-45.533°
Doppler factor1
Orbital elements
Apogee altitude1,510.512 km
Perigee altitude1,166.177 km
Semi-major axis7,716.481 km
Eccentricity0.0223116
Inclination82.514°
RAAN97.4247°
Arg. of periapsis125.4184°
True anomaly234.69115°
Mean anomaly236.7978°
Eccentric anomaly235.74123°
Mean motion3.20195 °/min
BSTAR-0.000015336
Orbital period112.43 mins
Loading maneuver chart data...
Loading historical data...
Loading historical data...
Loading historical data...
Loading historical data...
Loading historical data...
Loading historical data...
Loading historical data...
Other satellites on launch #97 in the year 2018 (2018-11-30 UTC)

BREEZE-KM R/B Visibility forecast

Observer location: undefined°, undefined

Span
Click to sort rows by Start time (UTC) header in descending order
Start Az.
Max El. time (UTC)
Max El. Az.
Max El.
End time (UTC)
End Az.
13 mins2024-12-26 18:00:26.397Z1.233° NNE2024-12-26 18:07:26.397Z86.217° E39.387°2024-12-26 18:13:26.397Z153.796° SSE
9 mins2024-12-26 19:56:26.397Z314.401° NW2024-12-26 20:00:26.397Z271.515° WNW21.884°2024-12-26 20:05:26.397Z226.933° WSW
13 mins2024-12-27 06:38:26.397Z159.91° S2024-12-27 06:45:26.397Z82.901° E37.396°2024-12-27 06:51:26.397Z20.943° NNE
11 mins2024-12-27 08:33:26.397Z235.703° WSW2024-12-27 08:38:26.397Z284.062° WNW27.298°2024-12-27 08:44:26.397Z344.029° N
|